Date String (YYYY-MM-DD hh:mm:ss) UTC,Instrument flags,Ambient pressure (hPa),Sample flow (lpm),Bypass flow (lpm),Sample temperature (°C),Ambient temperature (°C),ASC tube jacket temperature (°C),LED temperature (°C),Box temperature (°C),Sample RH (%),Span deviation,Mass concentration (μg/m³),Mass concentration (μg/m³),Mass concentration (μg/m³)
DateTimeUTC,F1_M11,P_M11,Q1_M11,Q2_M11,T1_M11,T2_M11,T3_M11,T4_M11,T5_M11,U1_M11,ZSPAN_M11,X2_M11,X0_M11,X1_M11
2023-02-20 02:00:00,,0817.1,5.01,0.00,21.9,20.0,00.0,30.8,23.5,09.7,0000.0,0002.16,0005.45,0001.30
2023-02-20 02:01:00,,0817.1,5.00,0.00,21.8,20.0,00.0,30.8,23.4,09.7,0000.0,0002.13,0005.41,0001.30
2023-02-20 02:02:00,,0817.1,5.01,0.00,21.8,20.0,00.0,30.8,23.4,09.7,0000.0,0002.08,0005.32,0001.29
2023-02-20 02:03:00,,0817.2,5.00,0.00,21.8,19.9,00.0,30.8,23.4,09.6,0000.0,0002.06,0005.68,0001.29
2023-02-20 02:04:00,,0817.1,5.01,0.00,21.8,20.2,00.0,30.7,23.4,09.8,0000.0,0002.01,0004.92,0001.29
2023-02-20 02:05:00,,0817.3,5.00,0.00,21.9,21.4,00.0,30.6,23.7,09.8,0000.0,0002.00,0004.61,0001.29
2023-02-20 02:06:00,,0817.2,5.01,0.00,22.0,22.6,00.0,30.6,24.0,09.8,0000.0,0002.02,0004.69,0001.29
2023-02-20 02:07:00,,0817.2,5.00,0.00,22.1,22.7,00.0,30.7,24.1,09.7,0000.0,0002.02,0004.73,0001.30
2023-02-20 02:08:00,,0817.4,5.01,0.00,22.1,22.1,00.0,30.8,24.0,09.6,0000.0,0002.00,0004.60,0001.29
2023-02-20 02:09:00,,0817.3,5.00,0.00,22.1,21.6,00.0,30.8,23.9,09.6,0000.0,0001.97,0004.52,0001.28
2023-02-20 02:10:00,,0817.3,4.97,0.00,22.1,21.2,00.0,30.9,23.8,09.6,0000.0,0002.00,0003.92,0001.27
2023-02-20 02:11:00,,0817.3,5.02,0.00,22.0,20.9,00.0,30.9,23.8,09.9,0000.0,0002.03,0004.00,0001.28
2023-02-20 02:12:00,,0817.3,5.01,0.00,22.0,20.7,00.0,30.9,23.7,09.7,0000.0,0002.07,0004.16,0001.29
2023-02-20 02:13:00,,0817.5,5.00,0.00,22.0,20.5,00.0,30.9,23.6,09.6,0000.0,0002.07,0004.54,0001.29
2023-02-20 02:14:00,,0817.5,5.00,0.00,22.0,20.3,00.0,30.9,23.6,09.8,0000.0,0002.13,0004.52,0001.30
2023-02-20 02:15:00,,0817.4,5.00,0.00,21.9,20.1,00.0,30.9,23.5,09.7,0000.0,0002.16,0006.08,0001.30
2023-02-20 02:16:00,,0817.3,5.00,0.00,21.9,20.0,00.0,30.9,23.5,09.9,0000.0,0002.15,0006.19,0001.30
2023-02-20 02:17:00,,0817.2,5.00,0.00,21.8,20.0,00.0,30.8,23.4,09.8,0000.0,0002.15,0006.27,0001.31
2023-02-20 02:18:00,,0817.1,4.99,0.00,21.8,19.9,00.0,30.8,23.3,09.8,0000.0,0002.14,0006.28,0001.31
2023-02-20 02:19:00,,0816.9,5.00,0.00,21.7,19.8,00.0,30.8,23.3,09.9,0000.0,0002.22,0006.52,0001.32
2023-02-20 02:20:00,,0817.1,4.99,0.00,21.7,19.8,00.0,30.8,23.2,09.9,0000.0,0002.24,0007.29,0001.32
2023-02-20 02:21:00,,0817.1,5.02,0.00,21.7,20.6,00.0,30.7,23.5,10.0,0000.0,0002.21,0007.93,0001.33
2023-02-20 02:22:00,,0817.2,5.03,0.00,21.9,21.9,00.0,30.6,23.8,10.2,0000.0,0002.21,0008.79,0001.33
2023-02-20 02:23:00,,0817.1,5.05,0.00,22.0,22.7,00.0,30.7,24.1,10.1,0000.0,0002.18,0009.36,0001.33
2023-02-20 02:24:00,,0817.3,5.02,0.00,22.1,22.3,00.0,30.7,24.0,09.9,0000.0,0002.21,0009.21,0001.33
2023-02-20 02:25:00,,0817.3,5.01,0.00,22.1,21.8,00.0,30.8,23.9,10.1,0000.0,0002.14,0009.28,0001.33
2023-02-20 02:26:00,,0817.3,5.01,0.00,22.0,21.3,00.0,30.8,23.8,10.1,0000.0,0002.11,0009.08,0001.33
2023-02-20 02:27:00,,0817.4,5.00,0.00,22.0,21.0,00.0,30.9,23.7,10.3,0000.0,0002.20,0009.00,0001.34
2023-02-20 02:28:00,,0817.4,4.99,0.00,22.0,20.7,00.0,30.9,23.6,10.2,0000.0,0002.24,0008.96,0001.36
2023-02-20 02:29:00,,0817.5,5.00,0.00,22.0,20.6,00.0,30.9,23.6,10.0,0000.0,0002.21,0008.87,0001.35
2023-02-20 02:30:00,,0817.5,4.99,0.00,21.9,20.5,00.0,30.9,23.5,09.9,0000.0,0002.16,0008.81,0001.34
2023-02-20 02:31:00,,0817.5,4.99,0.00,21.9,20.4,00.0,30.9,23.5,09.9,0000.0,0002.19,0008.55,0001.34
2023-02-20 02:32:00,,0817.5,5.00,0.00,21.9,20.2,00.0,30.9,23.5,10.3,0000.0,0002.21,0008.15,0001.35
2023-02-20 02:33:00,,0817.4,5.01,0.00,21.9,20.1,00.0,30.8,23.5,10.4,0000.0,0002.27,0007.21,0001.37
2023-02-20 02:34:00,,0817.2,4.99,0.00,21.8,20.0,00.0,30.8,23.4,10.4,0000.0,0002.34,0006.36,0001.37
2023-02-20 02:35:00,,0817.1,5.01,0.00,21.8,20.0,00.0,30.8,23.3,10.3,0000.0,0002.36,0006.43,0001.39
2023-02-20 02:36:00,,0817.1,5.02,0.00,21.8,20.0,00.0,30.8,23.3,10.2,0000.0,0002.40,0006.05,0001.41
2023-02-20 02:37:00,,0817.1,4.97,0.00,21.8,20.2,00.0,30.7,23.4,10.1,0000.0,0002.47,0005.66,0001.42
2023-02-20 02:38:00,,0817.0,4.98,0.00,21.8,21.4,00.0,30.7,23.7,10.2,0000.0,0002.39,0005.72,0001.41
2023-02-20 02:39:00,,0817.1,4.99,0.00,22.0,22.6,00.0,30.6,24.0,10.2,0000.0,0002.31,0005.57,0001.40
2023-02-20 02:40:00,,0817.0,4.97,0.00,22.1,22.8,00.0,30.7,24.2,10.2,0000.0,0002.33,0005.85,0001.40
2023-02-20 02:41:00,,0817.0,4.99,0.00,22.2,22.2,00.0,30.8,24.1,10.2,0000.0,0002.34,0005.97,0001.43
2023-02-20 02:42:00,,0817.1,5.01,0.00,22.1,21.7,00.0,30.8,23.9,10.2,0000.0,0002.35,0006.39,0001.45
2023-02-20 02:43:00,,0816.9,5.00,0.00,22.1,21.4,00.0,30.9,23.8,10.4,0000.0,0002.38,0006.32,0001.47
2023-02-20 02:44:00,,0816.8,4.99,0.00,22.1,21.1,00.0,30.9,23.7,10.4,0000.0,0002.33,0006.24,0001.46
2023-02-20 02:45:00,,0816.7,5.01,0.00,22.1,20.9,00.0,30.9,23.7,10.1,0000.0,0002.30,0006.21,0001.46
2023-02-20 02:46:00,,0816.8,4.98,0.00,22.0,20.6,00.0,30.9,23.6,10.1,0000.0,0002.33,0006.83,0001.45
2023-02-20 02:47:00,,0816.9,4.99,0.00,22.0,20.4,00.0,30.9,23.6,10.2,0000.0,0002.37,0007.30,0001.45
2023-02-20 02:48:00,,0816.8,4.99,0.00,22.0,20.3,00.0,30.9,23.5,10.3,0000.0,0002.38,0007.58,0001.46
2023-02-20 02:49:00,,0816.6,5.00,0.00,21.9,20.2,00.0,30.9,23.4,10.4,0000.0,0002.37,0007.63,0001.47
2023-02-20 02:50:00,,0816.9,5.00,0.00,21.9,20.2,00.0,30.9,23.4,10.2,0000.0,0002.44,0007.71,0001.49
2023-02-20 02:51:00,,0816.8,5.01,0.00,21.8,20.1,00.0,30.9,23.4,10.2,0000.0,0002.49,0007.66,0001.50
2023-02-20 02:52:00,,0816.9,5.01,0.00,21.9,21.0,00.0,30.8,23.6,10.4,0000.0,0002.49,0007.59,0001.50
2023-02-20 02:53:00,,0816.8,5.00,0.00,22.0,22.2,00.0,30.8,24.0,10.2,0000.0,0002.43,0006.87,0001.48
2023-02-20 02:54:00,,0816.6,5.02,0.00,22.1,23.1,00.0,30.8,24.3,10.0,0000.0,0002.46,0007.21,0001.47
2023-02-20 02:55:00,,0816.6,5.01,0.00,22.3,23.1,00.0,30.8,24.4,09.9,0000.0,0002.46,0007.23,0001.46
2023-02-20 02:56:00,,0816.5,5.00,0.00,22.3,22.4,00.0,30.9,24.2,09.9,0000.0,0002.49,0007.32,0001.47
2023-02-20 02:57:00,,0816.7,5.00,0.00,22.3,21.9,00.0,31.0,24.1,09.9,0000.0,0002.46,0006.79,0001.47
2023-02-20 02:58:00,,0816.5,5.02,0.00,22.3,21.5,00.0,31.0,24.0,10.0,0000.0,0002.41,0006.43,0001.45
2023-02-20 02:59:00,,0816.4,4.99,0.00,22.2,21.1,00.0,31.0,23.9,10.0,0000.0,0002.34,0005.30,0001.44
